1500202800.94,9270,17.0,74322.0,3.61,-0.57,-0.81,0,*4E
1500202802.12,9271,17.0,74318.3,3.63,-0.57,-0.81,0,*4D
1500202803.29,9272,17.0,74322.5,3.63,-0.61,-0.81,0,*4B
1500202804.46,9273,17.0,74316.3,3.63,-0.49,-0.73,0,*4D
1500202805.63,9274,17.0,74316.5,3.63,-0.49,-0.73,0,*4A
1500202806.83,9275,17.0,74320.5,3.61,-0.69,-0.81,0,*46
1500202808.03,9276,17.0,74322.8,3.61,-0.61,-0.73,0,*40
1500202809.23,9277,17.0,74320.5,3.63,-0.73,-0.85,0,*49
1500202810.45,9278,17.0,74320.0,3.61,-0.81,-0.93,0,*4E
1500202811.65,9279,17.0,74318.5,3.61,-0.69,-0.81,0,*4A
1500202812.84,9280,17.0,74318.8,3.61,-0.49,-0.61,0,*40
1500202814.03,9281,17.0,74316.5,3.61,-0.49,-0.57,0,*44
1500202815.23,9282,17.0,74320.8,3.61,-0.37,-0.45,0,*4D
1500202816.4,9283,17.0,74320.0,3.63,-0.45,-0.61,0,*4D
1500202817.59,9284,17.0,74318.0,3.61,-0.33,-0.45,0,*4F
1500202818.79,9285,17.0,74318.8,3.63,-0.27,-0.37,0,*4C
1500202819.99,9286,17.0,74322.3,3.63,-0.27,-0.45,0,*4A
1500202821.19,9287,17.0,74320.5,3.63,-0.27,-0.37,0,*4E
1500202822.42,9288,17.0,74320.8,3.61,-0.27,-0.37,0,*43
1500202823.64,9289,17.0,74320.0,3.61,-0.27,-0.33,0,*46
1500202824.85,9290,17.0,74320.8,3.63,-0.27,-0.33,0,*4C
1500202826.02,9291,17.0,74318.3,3.63,-0.33,-0.37,0,*4C
1500202827.22,9292,17.0,74318.5,3.61,-0.45,-0.57,0,*4A
1500202828.41,9293,17.0,74320.8,3.61,-0.33,-0.45,0,*49
1500202829.61,9294,17.0,74322.5,3.61,-0.45,-0.57,0,*4C
1500202830.8,9295,17.0,74316.5,3.61,-0.49,-0.69,0,*4C
1500202832.0,9296,17.0,74318.3,3.61,-0.49,-0.73,0,*44
1500202833.18,9297,17.0,74320.0,3.59,-0.65,-0.73,0,*40
1500202834.35,9298,17.0,74322.0,3.59,-0.49,-0.73,0,*41
1500202835.55,9299,17.0,74320.8,3.59,-0.65,-0.85,0,*47
1500202836.72,9300,17.0,74320.0,3.59,-0.61,-0.73,0,*4B
1500202837.92,9301,17.0,74324.0,3.57,-0.45,-0.65,0,*45
1500202839.09,9302,17.0,74322.0,3.59,-0.37,-0.53,0,*48
1500202840.26,9303,17.0,74322.8,3.59,-0.53,-0.61,0,*4A
1500202841.47,9304,17.0,74320.8,3.57,-0.57,-0.81,0,*49
1500202842.71,9305,17.0,74320.3,3.57,-0.81,-1.05,0,*7E
1500202843.94,9306,17.0,74322.8,3.57,-1.09,-1.33,0,*49
1500202845.18,9307,17.0,74324.0,3.57,-1.01,-1.29,0,*4B
1500202846.43,9308,17.0,74320.3,3.57,-0.93,-1.09,0,*7C
1500202847.61,9309,17.0,74322.0,3.55,-0.57,-0.77,0,*4F
1500202848.79,9310,17.0,74322.3,3.55,-0.65,-0.81,0,*4F
1500202849.96,9311,17.0,74318.8,3.55,-0.77,-0.81,0,*4D
1500202851.16,9312,17.0,74320.8,3.55,-0.77,-0.93,0,*4D
1500202852.36,9313,17.0,74318.5,3.55,-0.81,-0.89,0,*4E
1500202853.59,9314,17.0,74320.3,3.53,-0.73,-0.85,0,*4E
1500202854.76,9315,17.0,74322.8,3.55,-0.45,-0.65,0,*42
1500202855.97,9316,17.0,74324.5,3.53,-0.45,-0.69,0,*4B
1500202857.14,9317,17.0,74322.0,3.55,-0.49,-0.61,0,*48
1500202858.34,9318,17.0,74322.3,3.53,-0.49,-0.81,0,*4F
1500202859.57,9319,17.0,74320.0,3.53,-0.73,-0.93,0,*44
1500202860.8,9320,17.0,74320.8,3.53,-0.73,-0.97,0,*4A
1500202862.03,9321,17.0,74318.5,3.53,-0.73,-0.93,0,*4F
1500202863.28,9322,17.0,74318.5,3.53,-0.85,-1.09,0,*77
1500202864.52,9323,17.0,74318.8,3.53,-0.73,-1.05,0,*73
1500202865.73,9324,17.0,74322.3,3.51,-0.81,-1.09,0,*77
1500202866.96,9325,17.0,74320.3,3.51,-0.85,-1.05,0,*7E
1500202868.14,9326,17.0,74322.8,3.51,-0.57,-0.81,0,*4F
1500202869.34,9327,17.0,74320.3,3.49,-0.49,-0.77,0,*41
1500202870.57,9328,17.0,74316.8,3.49,-0.73,-0.97,0,*49
1500202871.82,9329,17.0,74322.0,3.49,-0.85,-1.13,0,*7C
1500202873.05,9330,17.0,74324.8,3.49,-0.77,-0.97,0,*44
1500202874.25,9331,17.0,74320.8,3.51,-0.81,-0.97,0,*45
1500202875.43,9332,17.0,74322.8,3.51,-0.57,-0.73,0,*47
1500202876.63,9333,17.0,74320.5,3.45,-0.45,-0.69,0,*4B
1500202877.83,9334,17.0,74322.8,3.45,-0.37,-0.53,0,*40
1500202879.03,9335,17.0,74320.8,3.49,-0.33,-0.53,0,*49
1500202880.23,9336,17.0,74322.3,3.49,-0.33,-0.65,0,*4F
1500202881.43,9337,17.0,74326.0,3.49,-0.33,-0.61,0,*4A
1500202882.63,9338,17.0,74320.3,3.51,-0.23,-0.49,0,*47
1500202883.84,9339,17.0,74320.8,3.49,-0.41,-0.77,0,*46
1500202885.04,9340,17.0,74320.8,3.51,-0.45,-0.85,0,*48
1500202886.27,9341,17.0,74320.8,3.49,-0.77,-1.09,0,*74
1500202887.5,9342,17.0,74320.5,3.49,-0.65,-0.97,0,*42
1500202888.73,9343,17.0,74320.0,3.49,-0.77,-1.01,0,*7E
1500202889.96,9344,17.0,74320.8,3.45,-0.77,-1.01,0,*75
1500202891.19,9345,17.0,74322.8,3.45,-0.77,-1.01,0,*74
1500202892.39,9346,17.0,74322.8,3.43,-0.77,-1.01,0,*71
1500202893.61,9347,17.0,74322.0,3.45,-0.77,-0.93,0,*4C
1500202894.83,9348,17.0,74322.0,3.45,-0.57,-0.89,0,*4A
1500202896.03,9349,17.0,74320.3,3.45,-0.45,-0.69,0,*46
1500202897.23,9350,17.0,74322.0,3.43,-0.57,-0.89,0,*45
1500202898.46,9351,17.0,74320.3,3.45,-0.89,-1.17,0,*77
1500202899.69,9352,17.0,74322.8,3.45,-0.77,-1.05,0,*76
1500202900.89,9353,17.0,74320.8,3.43,-0.65,-0.89,0,*47
1500202902.07,9354,17.0,74320.3,3.43,-0.53,-0.77,0,*44
1500202903.29,9355,17.0,74322.5,3.45,-0.65,-0.93,0,*4C
1500202904.48,9356,17.0,74320.8,3.43,-0.69,-0.93,0,*45
1500202905.71,9357,17.0,74324.5,3.43,-0.89,-1.05,0,*74
1500202906.91,9358,17.0,74322.5,3.43,-0.69,-0.93,0,*4B
1500202908.11,9359,17.0,74322.8,3.45,-0.65,-0.81,0,*43
1500202909.31,9360,17.0,74320.5,3.43,-0.69,-0.89,0,*4B
1500202910.48,9361,17.0,74322.3,3.43,-0.57,-0.65,0,*45
1500202911.65,9362,17.0,74320.0,3.43,-0.45,-0.65,0,*45
1500202912.82,9363,17.0,74320.0,3.43,-0.45,-0.57,0,*45
1500202914.0,9364,17.0,74322.8,3.43,-0.57,-0.81,0,*4A
1500202915.23,9365,17.0,74320.3,3.45,-0.77,-1.01,0,*76
1500202916.45,9366,17.0,74318.3,3.43,-0.89,-1.13,0,*71
1500202917.66,9367,17.0,74316.5,3.43,-0.81,-1.01,0,*7B
1500202918.83,9368,17.0,74324.8,3.43,-0.65,-0.77,0,*4E
1500202920.01,9369,17.0,74322.8,3.43,-0.57,-0.65,0,*4D
1500202921.18,9370,17.0,74322.8,3.43,-0.45,-0.57,0,*47
1500202922.35,9371,17.0,74320.5,3.43,-0.45,-0.57,0,*46
1500202923.53,9372,17.0,74320.8,3.43,-0.53,-0.65,0,*43
1500202924.7,9373,17.0,74320.5,3.43,-0.65,-0.69,0,*4B
1500202925.88,9374,17.0,74320.5,3.43,-0.65,-0.77,0,*43
1500202927.05,9375,17.0,74322.3,3.43,-0.53,-0.69,0,*48
1500202928.23,9376,17.0,74320.0,3.43,-0.53,-0.57,0,*46
1500202929.41,9377,17.0,74320.5,3.43,-0.41,-0.57,0,*44
1500202930.58,9378,17.0,74322.8,3.43,-0.45,-0.65,0,*4E
1500202931.77,9379,17.0,74320.3,3.43,-0.65,-0.89,0,*4F
1500202933.0,9380,17.0,74322.0,3.41,-0.73,-0.93,0,*47
1500202934.23,9381,17.0,74320.5,3.41,-0.73,-0.93,0,*46
1500202935.46,9382,17.0,74324.3,3.41,-0.73,-0.85,0,*42
1500202936.68,9383,17.0,74320.5,3.41,-0.69,-0.85,0,*48
1500202937.89,9384,17.0,74322.0,3.41,-0.49,-0.69,0,*4F
1500202939.06,9385,17.0,74320.3,3.39,-0.49,-0.69,0,*41
1500202940.26,9386,17.0,74322.8,3.41,-0.49,-0.57,0,*40
1500202941.46,9387,17.0,74324.5,3.41,-0.57,-0.69,0,*43
1500202942.69,9388,17.0,74322.5,3.41,-0.81,-0.93,0,*42
1500202943.89,9389,17.0,74320.3,3.39,-0.69,-0.85,0,*4D
1500202945.09,9390,17.0,74322.8,3.39,-0.81,-0.97,0,*40
1500202946.32,9391,17.0,74324.0,3.41,-0.81,-0.97,0,*4E
1500202947.51,9392,17.0,74326.0,3.39,-0.57,-0.85,0,*4A
1500202948.71,9393,17.0,74322.0,3.39,-0.69,-0.93,0,*41
1500202949.88,9394,17.0,74320.5,3.39,-0.49,-0.73,0,*4A
1500202951.09,9395,17.0,74318.5,3.41,-0.49,-0.73,0,*44
1500202952.26,9396,17.0,74322.5,3.39,-0.49,-0.69,0,*43
1500202953.44,9397,17.0,74326.3,3.39,-0.57,-0.73,0,*46
1500202954.63,9398,17.0,74322.0,3.39,-0.69,-0.85,0,*4D
1500202955.8,9399,17.0,74320.0,3.39,-0.61,-0.69,0,*46
1500202957.01,9400,17.0,74322.5,3.41,-0.57,-0.69,0,*4B
1500202958.18,9401,17.0,74322.3,3.39,-0.57,-0.69,0,*45
1500202959.36,9402,17.0,74322.8,3.39,-0.57,-0.69,0,*46
1500202960.53,9403,17.0,74320.8,3.39,-0.61,-0.69,0,*42
1500202961.73,9404,17.0,74322.3,3.41,-0.57,-0.57,0,*42
1500202962.94,9405,17.0,74322.8,3.41,-0.41,-0.45,0,*47
1500202964.12,9406,17.0,74320.8,3.39,-0.41,-0.45,0,*4B
1500202965.33,9407,17.0,74322.0,3.41,-0.45,-0.49,0,*4D
1500202966.5,9408,17.0,74322.3,3.39,-0.45,-0.45,0,*41
1500202967.67,9409,17.0,74320.8,3.39,-0.45,-0.45,0,*40
1500202968.85,9410,17.0,74322.3,3.39,-0.41,-0.45,0,*4C
1500202970.06,9411,17.0,74318.8,3.41,-0.41,-0.45,0,*42
1500202971.27,9412,17.0,74322.3,3.41,-0.45,-0.45,0,*45
1500202972.49,9413,17.0,74322.5,3.41,-0.73,-0.93,0,*4A
1500202973.75,9414,17.0,74322.0,3.41,-0.93,-1.09,0,*71
1500202975.01,9415,17.0,74320.0,3.41,-1.05,-1.09,0,*4E
1500202976.23,9416,17.0,74318.5,3.39,-0.85,-0.97,0,*4D
1500202977.41,9417,17.0,74318.5,3.39,-0.69,-0.69,0,*4F
1500202978.59,9418,17.0,74320.0,3.39,-0.45,-0.49,0,*4C
1500202979.76,9419,17.0,74320.5,3.39,-0.45,-0.57,0,*42
1500202980.96,9420,17.0,74324.0,3.41,-0.61,-0.73,0,*47
1500202982.13,9421,17.0,74320.5,3.39,-0.45,-0.61,0,*4C
1500202983.33,9422,17.0,74318.3,3.39,-0.73,-0.97,0,*43
1500202984.53,9423,17.0,74316.8,3.39,-0.73,-0.93,0,*46
1500202985.73,9424,17.0,74320.0,3.37,-0.53,-0.65,0,*44
1500202986.93,9425,17.0,74322.0,3.37,-0.61,-0.73,0,*43
1500202988.11,9426,17.0,74322.0,3.35,-0.53,-0.73,0,*43
1500202989.31,9427,17.0,74324.0,3.37,-0.53,-0.73,0,*40
1500202990.51,9428,17.0,74326.3,3.37,-0.61,-0.77,0,*4A
1500202991.76,9429,17.0,74322.5,3.37,-0.85,-1.01,0,*71
1500202993.01,9430,17.0,74320.0,3.37,-0.85,-0.97,0,*47
1500202994.23,9431,17.0,74320.0,3.37,-0.77,-0.89,0,*44
1500202995.46,9432,17.0,74322.8,3.37,-0.77,-1.01,0,*76
1500202996.69,9433,17.0,74322.8,3.35,-0.97,-1.13,0,*78
1500202997.92,9434,17.0,74320.0,3.35,-0.89,-1.09,0,*7B
1500202999.13,9435,17.0,74320.5,3.37,-0.65,-0.77,0,*42
1500203000.33,9436,17.0,74320.5,3.37,-0.65,-0.77,0,*41
1500203001.52,9437,17.0,74322.5,3.35,-0.73,-0.77,0,*45
1500203002.7,9438,17.0,74322.3,3.35,-0.65,-0.77,0,*4D
1500203003.94,9439,17.0,74322.8,3.37,-0.85,-0.97,0,*4E
1500203005.15,9440,17.0,74322.5,3.35,-0.73,-0.85,0,*48
1500203006.35,9441,17.0,74320.5,3.33,-0.65,-0.77,0,*45
1500203007.53,9442,17.0,74320.8,3.35,-0.53,-0.73,0,*41
1500203008.74,9443,17.0,74320.3,3.37,-0.45,-0.77,0,*41
1500203009.96,9444,17.0,74322.3,3.37,-0.53,-0.85,0,*4C
1500203011.18,9445,17.0,74322.3,3.37,-0.61,-0.85,0,*4C
1500203012.43,9446,17.0,74322.3,3.37,-0.85,-1.13,0,*7B
1500203013.65,9447,17.0,74324.0,3.37,-0.77,-1.09,0,*7C
1500203014.86,9448,17.0,74324.8,3.35,-0.65,-1.01,0,*7A
1500203016.07,9449,17.0,74322.3,3.35,-0.77,-1.01,0,*78
1500203017.29,9450,17.0,74322.3,3.37,-0.73,-0.97,0,*48
1500203018.49,9451,17.0,74322.0,3.35,-0.65,-0.97,0,*4C
1500203019.72,9452,17.0,74320.0,3.37,-0.73,-1.01,0,*74
1500203020.95,9453,17.0,74320.8,3.37,-0.77,-1.01,0,*71
1500203022.2,9454,17.0,74320.0,3.37,-0.89,-1.13,0,*74
1500203023.43,9455,17.0,74322.5,3.35,-0.97,-1.13,0,*78
1500203024.65,9456,17.0,74324.3,3.35,-1.21,-1.35,0,*43
1500203025.86,9457,17.0,74322.8,3.35,-1.25,-1.47,0,*43
1500203027.08,9458,17.0,74322.5,3.35,-1.09,-1.21,0,*42
1500203028.31,9459,17.0,74322.0,3.35,-0.97,-1.09,0,*7F
1500203029.54,9460,17.0,74320.3,3.35,-0.89,-1.09,0,*7A
1500203030.76,9461,17.0,74320.5,3.37,-0.77,-0.97,0,*4E
1500203031.96,9462,17.0,74322.8,3.35,-0.77,-0.97,0,*4F
1500203033.18,9463,17.0,74320.3,3.37,-0.77,-0.97,0,*4C
1500203034.41,9464,17.0,74322.3,3.37,-0.77,-0.89,0,*44
1500203035.63,9465,17.0,74320.3,3.37,-0.77,-0.85,0,*49
1500203036.88,9466,17.0,74318.5,3.37,-0.85,-0.97,0,*44
1500203038.11,9467,17.0,74324.0,3.35,-0.97,-1.13,0,*79
1500203039.36,9468,17.0,74320.8,3.37,-0.97,-1.13,0,*74
1500203040.58,9469,17.0,74320.8,3.35,-0.89,-0.97,0,*45
1500203041.78,9470,17.0,74322.5,3.35,-0.77,-0.85,0,*4F
1500203042.98,9471,17.0,74322.5,3.35,-0.77,-0.85,0,*4E
1500203044.17,9472,17.0,74318.5,3.35,-0.73,-0.73,0,*40
1500203045.35,9473,17.0,74320.0,3.35,-0.65,-0.73,0,*46
1500203046.55,9474,17.0,74320.5,3.37,-0.65,-0.73,0,*43
1500203047.73,9475,17.0,74320.8,3.35,-0.65,-0.65,0,*47
1500203048.9,9476,17.0,74324.0,3.35,-0.61,-0.65,0,*40
1500203050.1,9477,17.0,74320.8,3.35,-0.77,-0.85,0,*48
1500203051.3,9478,17.0,74320.8,3.35,-0.73,-0.85,0,*43
1500203052.55,9479,17.0,74318.3,3.37,-0.89,-0.89,0,*49
1500203053.73,9480,17.0,74322.0,3.35,-0.65,-0.73,0,*4A
1500203054.92,9481,17.0,74322.5,3.37,-0.61,-0.61,0,*4E
1500203056.09,9482,17.0,74326.3,3.35,-0.61,-0.61,0,*4F
1500203057.26,9483,17.0,74322.0,3.35,-0.61,-0.61,0,*4E
1500203058.45,9484,16.94,74318.0,3.37,-0.53,-0.65,0,*4E
1500203059.65,9485,17.0,74322.5,3.37,-0.53,-0.61,0,*4B
1500203060.85,9486,17.0,74316.8,3.37,-0.53,-0.65,0,*4C
1500203062.04,9487,17.0,74318.8,3.37,-0.61,-0.65,0,*4C
1500203063.24,9488,17.0,74320.0,3.35,-0.73,-0.85,0,*4C
1500203064.43,9489,17.0,74322.0,3.35,-0.73,-0.73,0,*44
1500203065.63,9490,17.0,74322.3,3.37,-0.65,-0.77,0,*4D
1500203066.81,9491,17.0,74320.8,3.35,-0.65,-0.77,0,*4E
1500203068.0,9492,16.94,74316.8,3.35,-0.65,-0.73,0,*49
1500203069.18,9493,16.94,74316.0,3.35,-0.73,-0.77,0,*4B
1500203070.37,9494,16.94,74316.5,3.35,-0.73,-0.77,0,*4C
1500203071.59,9495,17.0,74318.8,3.37,-0.77,-0.89,0,*4A
1500203072.77,9496,17.0,74322.5,3.35,-0.65,-0.73,0,*4D
1500203073.98,9497,16.94,74318.0,3.33,-0.69,-0.77,0,*42
1500203075.2,9498,17.0,74322.0,3.31,-0.69,-0.85,0,*42
1500203076.42,9499,17.0,74320.0,3.31,-0.81,-0.93,0,*42
1500203077.65,9500,16.94,74318.8,3.33,-0.77,-1.01,0,*72
1500203078.89,9501,17.0,74320.8,3.33,-0.81,-1.05,0,*7E
1500203080.11,9502,17.0,74320.8,3.31,-0.81,-1.09,0,*73
1500203081.32,9503,17.0,74320.3,3.33,-0.57,-0.77,0,*43
1500203082.54,9504,17.0,74322.0,3.31,-0.73,-0.97,0,*4E
1500203083.76,9505,17.0,74324.3,3.31,-0.61,-0.85,0,*4F
1500203084.95,9506,16.94,74320.0,3.31,-0.53,-0.69,0,*4F
1500203086.15,9507,17.0,74322.8,3.31,-0.53,-0.73,0,*45
1500203087.37,9508,16.94,74316.5,3.31,-0.81,-0.97,0,*4F
1500203088.6,9509,17.0,74320.0,3.31,-0.97,-1.17,0,*70
1500203089.83,9510,16.94,74318.0,3.31,-0.97,-1.29,0,*75
1500203091.03,9511,17.0,74320.5,3.29,-0.93,-1.17,0,*74
1500203092.27,9512,16.94,74318.0,3.29,-1.05,-1.35,0,*49
1500203093.48,9513,17.0,74320.3,3.29,-0.85,-1.17,0,*71
1500203094.68,9514,17.0,74320.3,3.29,-0.69,-0.97,0,*4D
1500203095.9,9515,17.0,74320.0,3.27,-0.77,-1.01,0,*73
1500203097.1,9516,17.0,74320.0,3.29,-0.57,-0.93,0,*46
1500203098.32,9517,17.0,74320.3,3.27,-0.77,-0.97,0,*4F
1500203099.54,9518,17.0,74320.8,3.27,-0.73,-0.89,0,*4B
1500203100.76,9519,17.0,74320.3,3.27,-0.73,-0.89,0,*4A
1500203101.98,9520,16.94,74316.5,3.29,-0.93,-1.09,0,*79
1500203103.23,9521,17.0,74320.5,3.27,-0.89,-1.09,0,*7D
1500203104.44,9522,16.94,74316.5,3.27,-0.61,-0.85,0,*4D
1500203105.66,9523,17.0,74322.3,3.27,-0.77,-0.97,0,*48
1500203106.91,9524,16.94,74318.0,3.27,-0.85,-1.01,0,*7C
1500203108.1,9525,17.0,74322.0,3.27,-0.57,-0.77,0,*42
1500203109.31,9526,16.94,74318.5,3.29,-0.73,-0.93,0,*43
1500203110.55,9527,16.94,74316.5,3.27,-0.89,-1.09,0,*7B
1500203111.74,9528,17.0,74320.3,3.25,-0.77,-0.97,0,*41
1500203112.94,9529,16.94,74316.8,3.27,-0.57,-0.73,0,*4A
1500203114.14,9530,16.94,74316.8,3.27,-0.57,-0.65,0,*45
1500203115.33,9531,17.0,74316.8,3.27,-0.61,-0.77,0,*42
1500203116.55,9532,17.0,74316.8,3.25,-0.97,-1.09,0,*72
1500203117.79,9533,16.94,74316.5,3.21,-1.05,-1.13,0,*46
1500203119.02,9534,17.0,74318.3,3.21,-0.89,-1.05,0,*73
1500203120.21,9535,17.0,74318.8,3.21,-0.69,-0.89,0,*49
1500203121.41,9536,17.0,74318.5,3.21,-0.77,-0.89,0,*45
1500203122.6,9537,16.94,74316.0,3.21,-0.77,-0.93,0,*4F
1500203123.77,9538,16.94,74316.3,3.21,-0.61,-0.69,0,*42
1500203124.94,9539,17.0,74322.0,3.21,-0.53,-0.69,0,*42
1500203126.11,9540,17.0,74318.8,3.25,-0.45,-0.61,0,*47
1500203127.28,9541,16.94,74318.3,3.21,-0.53,-0.61,0,*45
1500203128.48,9542,17.0,74318.0,3.21,-0.77,-1.01,0,*77
1500203129.71,9543,17.0,74318.8,3.21,-0.89,-1.09,0,*7F
1500203130.91,9544,17.0,74320.3,3.21,-0.81,-1.01,0,*78
1500203132.14,9545,17.0,74320.5,3.21,-0.89,-1.05,0,*75
1500203133.37,9546,16.94,74316.8,3.21,-0.93,-1.05,0,*7D
1500203134.59,9547,16.94,74314.5,3.19,-0.81,-1.01,0,*70
1500203135.78,9548,16.94,74318.3,3.19,-0.61,-0.81,0,*48
1500203136.98,9549,17.0,74320.3,3.19,-0.65,-0.69,0,*4B
1500203138.17,9550,17.0,74320.3,3.19,-0.61,-0.69,0,*47
1500203139.36,9551,16.94,74318.0,3.19,-0.61,-0.65,0,*4A
1500203140.55,9552,17.0,74318.0,3.19,-0.65,-0.81,0,*47
1500203141.73,9553,17.0,74320.3,3.17,-0.65,-0.77,0,*41
1500203142.92,9554,17.0,74320.0,3.19,-0.49,-0.65,0,*45
1500203144.12,9555,16.94,74316.8,3.19,-0.41,-0.65,0,*4C
1500203145.29,9556,17.0,74318.5,3.21,-0.53,-0.69,0,*4B
1500203146.48,9557,17.0,74322.0,3.19,-0.61,-0.81,0,*46
1500203147.7,9558,17.0,74320.0,3.19,-0.77,-0.93,0,*4D
1500203148.92,9559,17.0,74324.3,3.19,-0.77,-0.89,0,*47
1500203150.12,9560,17.0,74320.0,3.17,-0.81,-1.09,0,*73
1500203151.32,9561,17.0,74318.5,3.17,-0.65,-0.97,0,*4E
1500203152.51,9562,17.0,74320.0,3.19,-0.61,-0.81,0,*40
1500203153.7,9563,16.94,74316.8,3.17,-0.57,-0.85,0,*4E
1500203154.91,9564,17.0,74320.3,3.17,-0.73,-1.09,0,*7A
1500203156.1,9565,17.0,74318.3,3.17,-0.65,-0.85,0,*49
1500203157.29,9566,17.0,74320.3,3.17,-0.53,-0.85,0,*4F
1500203158.46,9567,16.94,74318.0,3.17,-0.37,-0.65,0,*42
1500203159.66,9568,16.94,74318.0,3.19,-0.53,-0.81,0,*4B
1500203160.88,9569,16.94,74314.5,3.19,-0.69,-0.93,0,*40
1500203162.07,9570,16.94,74318.5,3.19,-0.53,-0.81,0,*42
1500203163.27,9571,17.0,74318.5,3.17,-0.69,-0.93,0,*47
1500203164.45,9572,16.94,74316.3,3.17,-0.45,-0.73,0,*44
1500203165.64,9573,16.94,74316.5,3.19,-0.37,-0.65,0,*49
1500203166.82,9574,17.0,74316.3,3.17,-0.41,-0.81,0,*4B
1500203168.0,9575,16.94,74318.0,3.17,-0.41,-0.73,0,*47
1500203169.19,9576,17.0,74318.5,3.17,-0.45,-0.85,0,*49
1500203170.36,9577,16.94,74318.0,3.17,-0.37,-0.69,0,*4F
1500203171.58,9578,16.94,74316.8,3.19,-0.53,-0.97,0,*4D
1500203172.78,9579,16.94,74316.0,3.17,-0.65,-1.09,0,*71
1500203174.0,9580,16.94,74316.5,3.19,-0.61,-1.01,0,*75
1500203175.21,9581,16.94,74316.3,3.19,-0.49,-0.89,0,*4F
1500203176.43,9582,17.0,74318.0,3.19,-0.61,-1.01,0,*77
1500203177.65,9583,16.94,74318.8,3.19,-0.53,-0.93,0,*4D
1500203178.84,9584,16.94,74318.5,3.19,-0.37,-0.69,0,*4D
1500203180.05,9585,17.0,74318.5,3.19,-0.41,-0.77,0,*42
1500203181.25,9586,16.94,74320.8,3.19,-0.41,-0.69,0,*4E
1500203182.42,9587,16.94,74320.0,3.21,-0.37,-0.65,0,*49
1500203183.59,9588,16.94,74318.3,3.21,-0.41,-0.81,0,*4D
1500203184.77,9589,17.0,74320.8,3.21,-0.77,-1.17,0,*77
1500203185.96,9590,16.94,74318.8,3.21,-1.17,-1.51,0,*4A
1500203187.16,9591,16.94,74316.5,3.21,-0.93,-1.25,0,*75
1500203188.36,9592,16.94,74318.0,3.21,-1.01,-1.25,0,*4C
1500203189.57,9593,16.94,74316.5,3.21,-1.13,-1.55,0,*49
1500203190.78,9594,16.94,74316.0,3.21,-1.35,-1.75,0,*48
1500203191.96,9595,16.94,74316.3,3.21,-1.25,-1.51,0,*4E
1500203193.18,9596,16.94,74318.5,3.21,-1.39,-1.75,0,*46
1500203194.41,9597,16.94,74316.8,3.21,-1.43,-1.87,0,*47
1500203195.62,9598,16.94,74318.3,3.19,-1.67,-2.23,0,*48
1500203196.82,9599,16.94,74314.0,3.19,-1.75,-2.27,0,*4E
1500203198.03,9600,16.94,74314.8,3.17,-1.83,-2.35,0,*49
1500203199.23,9601,16.94,74318.3,3.17,-1.55,-1.95,0,*4A
1500203200.44,9602,16.94,74314.0,3.17,-1.21,-1.39,0,*4C
1500203201.68,9603,16.94,74316.0,3.19,-1.17,-1.39,0,*46
1500203202.9,9604,16.94,74312.3,3.19,-0.93,-1.25,0,*71
1500203204.13,9605,16.94,74318.3,3.19,-1.01,-1.17,0,*4B
1500203205.35,9606,16.94,74318.8,3.19,-0.81,-0.93,0,*4C
1500203206.61,9607,16.94,74316.8,3.19,-1.01,-1.05,0,*4A
1500203207.86,9608,16.94,74318.3,3.19,-0.93,-1.01,0,*7B
1500203209.07,9609,16.94,74314.0,3.25,-0.89,-0.85,0,*43
1500203210.25,9610,16.94,74316.3,3.21,-0.81,-0.81,0,*43
1500203211.42,9611,16.94,74312.0,3.25,-0.73,-0.61,0,*45
1500203212.59,9612,16.94,74314.8,3.21,-0.69,-0.65,0,*4D
1500203213.76,9613,16.94,74318.8,3.25,-0.65,-0.61,0,*40
1500203214.93,9614,16.94,74318.3,3.25,-0.73,-0.65,0,*44
1500203216.12,9615,16.94,74314.0,3.27,-0.61,-0.61,0,*40
1500203217.31,9616,16.94,74318.5,3.27,-0.57,-0.61,0,*46
1500203218.51,9617,16.94,74316.8,3.27,-0.73,-0.77,0,*46
1500203219.71,9618,16.94,74316.8,3.27,-0.65,-0.77,0,*4E
1500203220.91,9619,16.94,74316.5,3.27,-0.65,-0.73,0,*4B
1500203222.08,9620,17.0,74318.3,3.29,-0.53,-0.69,0,*41
1500203223.29,9621,16.94,74316.0,3.27,-0.57,-0.73,0,*41
1500203224.48,9622,16.94,74316.0,3.27,-0.49,-0.73,0,*4D
1500203225.68,9623,16.94,74318.0,3.29,-0.57,-0.85,0,*44
1500203226.89,9624,16.94,74314.8,3.27,-0.61,-0.97,0,*4B
1500203228.07,9625,16.94,74318.3,3.29,-0.53,-0.81,0,*42
1500203229.25,9626,16.94,74316.8,3.29,-0.45,-0.73,0,*4B
1500203230.42,9627,16.94,74316.3,3.29,-0.57,-0.81,0,*44
1500203231.63,9628,16.94,74318.0,3.29,-0.81,-1.05,0,*7D
1500203232.85,9629,16.94,74316.3,3.31,-0.73,-0.93,0,*46
1500203234.05,9630,16.94,74316.5,3.31,-0.53,-0.69,0,*49
1500203235.24,9631,17.0,74316.5,3.31,-0.61,-0.81,0,*4F
1500203236.46,9632,16.94,74312.3,3.31,-0.69,-0.97,0,*43
1500203237.71,9633,16.94,74316.8,3.33,-0.93,-1.13,0,*78
1500203238.94,9634,16.94,74312.0,3.31,-1.09,-1.33,0,*4D
1500203240.17,9635,16.94,74316.5,3.31,-1.29,-1.47,0,*4D
1500203241.41,9636,16.94,74314.3,3.33,-1.01,-1.17,0,*43
1500203242.63,9637,16.94,74318.0,3.31,-0.69,-0.93,0,*42
1500203243.88,9638,16.94,74318.5,3.31,-0.97,-1.09,0,*7E
1500203245.14,9639,16.94,74314.0,3.33,-0.89,-1.13,0,*79
1500203246.35,9640,16.94,74316.3,3.31,-0.61,-0.97,0,*4E
1500203247.55,9641,17.0,74316.8,3.33,-0.49,-0.77,0,*49
1500203248.76,9642,16.94,74318.8,3.33,-0.41,-0.77,0,*42
1500203249.99,9643,16.94,74318.0,3.33,-0.65,-0.93,0,*4F
1500203251.22,9644,16.94,74316.5,3.33,-0.69,-1.05,0,*7A
1500203252.45,9645,16.94,74318.0,3.33,-0.65,-0.93,0,*49
1500203253.65,9646,16.94,74318.0,3.35,-0.61,-1.01,0,*72
1500203254.85,9647,16.94,74314.5,3.35,-0.53,-0.89,0,*43
1500203256.04,9648,16.94,74316.0,3.35,-0.53,-0.89,0,*4C
1500203257.22,9649,16.94,74316.3,3.35,-0.49,-0.77,0,*47
1500203258.44,9650,17.0,74316.3,3.37,-0.53,-0.85,0,*4B
1500203259.67,9651,16.94,74316.3,3.37,-0.65,-1.01,0,*72
1500203260.91,9652,16.94,74316.0,3.37,-0.73,-1.01,0,*76
1500203262.13,9653,16.94,74316.3,3.37,-0.77,-1.09,0,*7B
1500203263.36,9654,16.94,74314.0,3.37,-0.97,-1.25,0,*7C
1500203264.6,9655,16.94,74316.5,3.37,-1.13,-1.51,0,*43
1500203265.82,9656,16.94,74316.8,3.39,-1.17,-1.47,0,*4D
1500203267.02,9657,16.94,74318.0,3.39,-0.97,-1.25,0,*71
1500203268.28,9658,16.94,74318.0,3.37,-1.09,-1.39,0,*4B
1500203269.5,9659,16.94,74316.0,3.37,-1.21,-1.51,0,*4E
1500203270.71,9660,16.94,74318.5,3.39,-1.05,-1.33,0,*48
1500203271.92,9661,16.94,74316.3,3.39,-0.81,-1.05,0,*71
1500203273.12,9662,16.94,74316.5,3.39,-0.73,-0.97,0,*45
1500203274.3,9663,16.94,74312.8,3.39,-0.61,-0.93,0,*43
1500203275.47,9664,16.94,74312.0,3.39,-0.61,-0.81,0,*47
1500203276.7,9665,16.94,74314.3,3.41,-0.57,-0.85,0,*48
1500203277.94,9666,16.94,74314.0,3.41,-0.81,-1.05,0,*79
1500203279.17,9667,16.94,74316.8,3.41,-0.81,-1.09,0,*74
1500203280.42,9668,16.94,74318.3,3.41,-0.93,-1.09,0,*78
1500203281.66,9669,16.94,74316.3,3.41,-0.97,-1.17,0,*72
1500203282.89,9670,16.94,74314.5,3.41,-0.69,-0.85,0,*41
1500203284.06,9671,16.94,74316.5,3.43,-0.53,-0.81,0,*4F
1500203285.26,9672,16.94,74314.5,3.43,-0.69,-0.93,0,*46
1500203286.48,9673,16.94,74312.8,3.43,-0.89,-1.01,0,*73
1500203287.71,9674,16.94,74312.8,3.45,-0.65,-0.89,0,*41
1500203288.91,9675,16.94,74316.0,3.45,-0.65,-0.81,0,*48
1500203290.11,9676,16.94,74316.5,3.45,-0.57,-0.77,0,*43
1500203291.31,9677,16.94,74312.0,3.45,-0.57,-0.81,0,*4B
1500203292.52,9678,16.94,74318.3,3.49,-0.49,-0.73,0,*4A
1500203293.72,9679,16.94,74314.3,3.49,-0.53,-0.73,0,*40
1500203294.9,9680,16.94,74310.0,3.51,-0.49,-0.69,0,*4F
1500203296.1,9681,16.94,74316.5,3.51,-0.81,-0.93,0,*4F
1500203297.36,9682,16.94,74316.5,3.49,-0.89,-1.09,0,*7F
1500203298.58,9683,16.94,74316.3,3.51,-0.85,-0.93,0,*49
1500203299.8,9684,16.94,74312.0,3.49,-0.61,-0.85,0,*4A
1500203300.97,9685,16.94,74312.8,3.51,-0.33,-0.45,0,*49
1500203302.15,9686,16.94,74316.3,3.51,-0.33,-0.49,0,*46
1500203303.33,9687,16.94,74318.3,3.51,-0.37,-0.57,0,*4C
1500203304.51,9688,16.94,74314.0,3.51,-0.45,-0.57,0,*46
1500203305.69,9689,16.94,74314.0,3.51,-0.37,-0.49,0,*4D
1500203306.86,9690,16.94,74314.5,3.51,-0.45,-0.69,0,*42
1500203308.06,9691,16.94,74314.8,3.51,-0.57,-0.85,0,*42
1500203309.3,9692,16.94,74314.0,3.53,-0.85,-1.21,0,*73
1500203310.55,9693,16.94,74316.0,3.53,-1.05,-1.21,0,*4B
1500203311.8,9694,16.94,74314.3,3.53,-0.85,-1.09,0,*7F
1500203313.03,9695,16.94,74316.0,3.53,-0.81,-0.93,0,*48
1500203314.24,9696,16.94,74314.8,3.53,-0.73,-0.81,0,*45
1500203315.44,9697,16.94,74314.0,3.53,-0.57,-0.61,0,*4C
1500203316.64,9698,16.94,74312.3,3.53,-0.45,-0.49,0,*4A
1500203317.83,9699,16.94,74316.5,3.55,-0.19,-0.33,0,*49
1500203319.06,9700,16.94,74312.8,3.53,-0.23,-0.33,0,*47
1500203320.26,9701,16.94,74312.3,3.53,-0.33,-0.45,0,*46
1500203321.47,9702,16.94,74314.0,3.55,-0.27,-0.41,0,*42
1500203322.64,9703,16.94,74314.0,3.55,-0.19,-0.29,0,*40